TimeCDT,TemperatureF,Dew PointF,Humidity,Sea Level PressureIn,VisibilityMPH,Wind Direction,Wind SpeedMPH,Gust SpeedMPH,PrecipitationIn,Events,Conditions,WindDirDegrees,DateUTC
1:53 AM,30.9,25.0,79,30.42,10.0,Calm,Calm,-,N/A,,Clear,0,2013-03-14 06:53:00
2:53 AM,30.0,24.1,79,30.41,10.0,Calm,Calm,-,N/A,,Clear,0,2013-03-14 07:53:00
3:53 AM,28.9,23.0,78,30.42,10.0,Calm,Calm,-,N/A,,Clear,0,2013-03-14 08:53:00
4:53 AM,28.9,23.0,78,30.41,10.0,Calm,Calm,-,N/A,,Clear,0,2013-03-14 09:53:00
5:53 AM,28.9,24.1,82,30.40,10.0,Calm,Calm,-,N/A,,Mostly Cloudy,0,2013-03-14 10:53:00
6:53 AM,28.0,23.0,81,30.42,10.0,Calm,Calm,-,N/A,,Clear,0,2013-03-14 11:53:00
7:53 AM,30.0,24.1,79,30.40,10.0,Calm,Calm,-,N/A,,Clear,0,2013-03-14 12:53:00
8:53 AM,35.1,27.0,72,30.42,10.0,SSE,3.5,-,N/A,,Mostly Cloudy,160,2013-03-14 13:53:00
9:53 AM,41.0,27.0,57,30.41,10.0,South,10.4,-,N/A,,Partly Cloudy,190,2013-03-14 14:53:00
10:53 AM,44.1,28.0,53,30.38,10.0,South,9.2,-,N/A,,Overcast,180,2013-03-14 15:53:00
11:53 AM,48.0,28.9,48,30.35,10.0,SSW,12.7,-,N/A,,Scattered Clouds,200,2013-03-14 16:53:00
12:53 PM,50.0,30.9,48,30.32,10.0,South,13.8,19.6,N/A,,Mostly Cloudy,170,2013-03-14 17:53:00
1:53 PM,52.0,30.9,45,30.27,10.0,SSW,13.8,-,N/A,,Overcast,200,2013-03-14 18:53:00
2:53 PM,52.0,32.0,47,30.25,10.0,South,10.4,-,N/A,,Overcast,190,2013-03-14 19:53:00
3:53 PM,54.0,32.0,43,30.21,10.0,South,8.1,-,N/A,,Mostly Cloudy,170,2013-03-14 20:53:00
4:53 PM,55.0,35.1,47,30.18,10.0,SSE,10.4,-,N/A,,Clear,150,2013-03-14 21:53:00
5:53 PM,57.0,37.0,47,30.17,10.0,SE,6.9,-,N/A,,Clear,140,2013-03-14 22:53:00
6:53 PM,54.0,39.0,57,30.17,10.0,ENE,4.6,-,N/A,,Clear,70,2013-03-14 23:53:00
7:53 PM,50.0,37.9,63,30.15,10.0,SE,3.5,-,N/A,,Clear,130,2013-03-15 00:53:00
8:53 PM,48.0,37.9,68,30.14,10.0,SE,5.8,-,N/A,,Clear,140,2013-03-15 01:53:00
9:53 PM,46.9,37.9,71,30.13,10.0,SSE,5.8,-,N/A,,Clear,160,2013-03-15 02:53:00
10:53 PM,46.9,37.9,71,30.12,10.0,South,3.5,-,N/A,,Clear,170,2013-03-15 03:53:00
11:53 PM,42.1,37.0,82,30.11,10.0,Calm,Calm,-,N/A,,Clear,0,2013-03-15 04:53:00